Tracking 19224 objects as of 22-Jul-2018
HD Live streaming from Space Station
objects crossing your sky now

COSMOS 2112

Track COSMOS 2112 now!
10-day predictions
COSMOS 2112 is classified as:


NORAD ID: 21014
Int'l Code: 1990-111A
Perigee: 767.8 km
Apogee: 807.6 km
Inclination: 74.0 °
Period: 100.5 minutes
Semi major axis: 7158 km
RCS: 2.2033 m2 (large)
Launch date: December 10, 1990
Source: Commonwealth of Independent States (former USSR) (CIS)
Launch site: PLESETSK MISSILE AND SPACE COMPLEX (PKMTR)
aabbcc
Your satellite tracking list
Your tracking list is empty




NASA's NSSDC Master Catalog

Two Line Element Set (TLE):
1 21014U 90111A   18202.43645428 +.00000018 +00000-0 +15968-4 0  9991
2 21014 074.0458 182.2506 0027819 359.3448 000.7662 14.33341509443460
Source of the keplerian elements: AFSPC